#timestamp,LO_Frequency,Hit,StdDev 
1589191215.2,286046998.5,N
1589191235.1,286047000.1,N
1589191236.0,286047000.1,N
1589191255.8,286047002.4,N
1589191275.6,286047001.8,N
1589191295.5,286047005.7,Y
1589191315.3,286047007.0,P
1589191335.2,286047005.8,N
1589191355.9,286047003.6,N
1589191375.7,286047000.9,N
1589191395.6,286047002.4,N
1589191415.4,286047002.8,N
1589191435.3,286047002.5,N
1589191455.1,286047000.3,N
1589191475.8,286046996.7,N
1589191495.7,286046996.5,N
1589191515.5,286047000.2,N
1589191535.4,286047002.0,N
1589191555.2,286047003.3,N
1589191575.0,286047006.3,N
1589191575.9,286047006.3,N
1589191595.8,286047008.3,N
1589191615.6,286047010.2,Y
1589191635.4,286047005.0,P
1589191655.3,286047003.8,P
1589191675.1,286046999.9,N
1589191695.9,286046999.9,N
1589191715.7,286046999.8,N
1589191735.5,286047001.6,N
1589191755.4,286047002.0,N
1589191775.2,286047005.1,N
1589191795.1,286047009.1,Y
1589191796.0,286047009.1,P
1589191815.8,286047006.8,N
1589191835.6,286047008.4,N
1589191855.5,286047009.0,Y
1589191875.3,286047000.3,P
1589191895.2,286046998.2,N
1589191915.9,286046999.5,N
1589191935.7,286046996.4,N
1589191955.6,286046995.2,N
1589191975.4,286046999.6,N
1589191995.2,286047002.1,N
1589192015.1,286047002.4,N
1589192016.0,286047002.4,N
1589192035.8,286047002.6,N
1589192055.7,286046999.6,N
1589192075.5,286046999.5,N
1589192095.3,286046997.2,N
1589192115.2,286046993.1,N
1589192135.0,286046987.0,Y
1589192135.9,286046987.0,P
1589192155.8,286046985.4,N
1589192175.6,286046987.8,N
1589192195.4,286046989.5,N
1589192215.3,286046986.3,N
1589192235.1,286046980.7,Y
1589192255.8,286046989.3,P
1589192275.7,286046987.6,P
1589192295.5,286046985.1,P
1589192315.4,286046983.1,Y
1589192335.2,286046991.7,P
1589192355.0,286046990.5,P
1589192355.9,286046990.5,P
1589192375.8,286046989.6,Y
1589192395.6,286047000.6,P
1589192415.5,286046999.0,N
1589192435.3,286047001.2,N
1589192455.1,286046998.9,N
1589192475.9,286047002.0,N
1589192495.7,286047003.8,N
1589192515.6,286047005.5,N
1589192535.4,286047005.5,N
1589192555.2,286047006.7,N
1589192575.1,286047005.4,N
1589192576.0,286047005.4,N
1589192595.8,286047003.1,N
1589192615.6,286047006.7,N
1589192635.5,286047012.2,N
1589192655.3,286047013.5,N
1589192675.2,286047013.3,N
1589192695.9,286047014.8,N
1589192715.7,286047020.4,Y
1589192735.6,286047014.7,P
1589192755.4,286047012.9,N
1589192775.3,286047012.7,N
1589192795.1,286047011.3,N
1589192796.0,286047011.3,Y
1589192815.8,286046997.3,P
1589192835.7,286046995.5,N
1589192855.5,286046998.0,N
1589192875.4,286046996.7,N
1589192895.2,286046996.5,N
1589192915.0,286046998.3,N
1589192915.9,286046998.3,N
1589192935.8,286046998.2,N
1589192955.6,286047000.7,N
1589192975.5,286047002.1,N
1589192995.3,286047000.4,N
1589193015.1,286046998.0,N
1589193035.9,286046999.6,N
1589193055.7,286046995.5,N
1589193075.5,286046996.2,N
1589193095.4,286046995.6,N
1589193115.2,286046993.4,N
1589193135.1,286046992.8,N
1589193136.0,286046992.8,N
1589193155.8,286046988.0,Y
1589193175.6,286046990.5,P
1589193195.5,286046994.5,N
1589193215.3,286046990.4,P
1589193235.2,286046992.8,N
1589193255.9,286046988.9,Y
1589193275.7,286046998.5,P
1589193295.6,286047003.8,N
1589193315.4,286047001.6,N
1589193335.2,286047002.8,N
1589193355.1,286047005.8,N
1589193375.0,286047003.7,N
1589193375.9,286047003.7,N
1589193395.8,286047003.7,N
1589193415.6,286047001.8,N
1589193435.4,286047002.2,N
1589193455.3,286046999.3,N
1589193475.1,286046996.8,N
1589193495.8,286046997.1,N
1589193515.7,286046995.6,N
1589193535.5,286046996.0,N
1589193555.4,286046991.8,N
1589193575.2,286046993.5,N
1589193595.0,286047001.2,N
1589193595.9,286047001.2,N
1589193615.8,286046997.4,N
1589193635.6,286046997.5,N
1589193655.5,286046995.9,N
1589193675.3,286046993.4,N
1589193695.1,286046990.2,N
1589193715.9,286046990.1,N
1589193735.7,286046995.3,N
1589193755.6,286046995.7,N
1589193775.4,286046994.9,N
1589193795.2,286046997.1,N
1589193815.1,286046994.2,N
1589193816.0,286046994.2,N
1589193835.8,286046992.1,N
1589193855.6,286046993.7,N
1589193875.5,286046995.7,N
1589193895.3,286046992.8,N
1589193915.2,286046986.9,Y
1589193935.0,286046991.9,P
1589193935.9,286046991.9,P
1589193955.7,286046996.3,N
1589193975.6,286046995.1,N
1589193995.4,286046995.9,N
1589194015.3,286046997.3,N
1589194035.1,286046994.9,N
1589194036.0,286046994.9,N
1589194055.8,286046996.7,N
1589194075.7,286046997.4,N
1589194095.5,286046995.9,N
1589194115.4,286046992.0,Y
1589194135.2,286046995.5,P
1589194155.0,286046997.7,P
1589194155.9,286046997.7,N
1589194175.8,286046995.6,Y
1589194195.6,286047001.0,P
1589194215.5,286047002.5,N
1589194235.3,286047003.0,N
1589194255.1,286047008.1,Y
1589194275.9,286047004.9,P
1589194295.7,286047003.2,N
1589194315.5,286047006.6,P
1589194335.4,286047010.2,Y
1589194355.2,286047004.7,P
1589194375.1,286047005.8,P
1589194376.0,286047005.8,P
1589194395.8,286047001.6,N
1589194415.6,286047002.0,N
1589194435.5,286047004.3,N
1589194455.3,286047002.4,N
1589194475.2,286046998.7,N
1589194495.9,286047001.2,N
1589194515.7,286047002.1,N
1589194535.6,286047004.6,N
1589194555.4,286047004.5,N
1589194575.3,286047006.1,Y
1589194595.1,286047001.7,P
1589194596.0,286047001.7,N
1589194615.8,286046996.8,P
1589194635.7,286046994.8,N
1589194655.5,286046993.6,N
1589194675.3,286046993.6,N
1589194695.2,286046990.7,N
1589194715.0,286046992.1,N
1589194715.9,286046992.1,N
1589194735.8,286046994.2,N
1589194755.6,286046997.1,N
1589194775.4,286046993.7,N
1589194795.3,286046993.2,N
